TimeCDT,TemperatureF,Dew PointF,Humidity,Sea Level PressureIn,VisibilityMPH,Wind Direction,Wind SpeedMPH,Gust SpeedMPH,PrecipitationIn,Events,Conditions,WindDirDegrees,DateUTC
12:56 AM,70.0,66.9,90,30.00,10.0,WSW,5.8,-,N/A,,Clear,240,2013-06-24 05:56:00
1:56 AM,68.0,65.8,93,29.99,10.0,South,8.1,-,N/A,,Clear,180,2013-06-24 06:56:00
2:56 AM,66.9,65.8,96,30.00,10.0,South,10.4,-,N/A,,Partly Cloudy,190,2013-06-24 07:56:00
3:56 AM,66.9,65.8,96,30.01,10.0,SSW,9.2,-,N/A,,Mostly Cloudy,200,2013-06-24 08:56:00
4:35 AM,69.8,64.4,83,30.06,10.0,Variable,4.6,-,N/A,Thunderstorm,Thunderstorm,0,2013-06-24 09:35:00
4:56 AM,68.9,66.9,93,30.03,10.0,East,4.6,-,N/A,,Overcast,80,2013-06-24 09:56:00
5:07 AM,69.8,66.2,88,30.06,10.0,ESE,6.9,-,N/A,Thunderstorm,Overcast,110,2013-06-24 10:07:00
5:25 AM,68.0,66.2,94,30.07,10.0,ESE,8.1,-,N/A,Thunderstorm,Overcast,120,2013-06-24 10:25:00
5:44 AM,69.8,64.4,83,30.07,10.0,SE,8.1,-,N/A,Thunderstorm,Overcast,130,2013-06-24 10:44:00
5:56 AM,68.9,64.9,87,30.04,10.0,SSE,5.8,-,N/A,Thunderstorm,Mostly Cloudy,150,2013-06-24 10:56:00
6:56 AM,70.0,65.8,87,30.09,10.0,NE,5.8,-,N/A,Thunderstorm,Mostly Cloudy,40,2013-06-24 11:56:00
7:56 AM,68.9,65.8,90,30.08,10.0,Calm,Calm,-,N/A,Thunderstorm,Mostly Cloudy,0,2013-06-24 12:56:00
8:03 AM,69.8,66.2,88,30.11,10.0,East,9.2,-,N/A,,Mostly Cloudy,100,2013-06-24 13:03:00
8:56 AM,72.0,66.9,84,30.08,10.0,South,6.9,-,N/A,,Scattered Clouds,190,2013-06-24 13:56:00
9:56 AM,75.9,64.9,69,30.07,10.0,SSW,11.5,-,N/A,,Partly Cloudy,200,2013-06-24 14:56:00
10:56 AM,77.9,66.9,69,30.07,10.0,Variable,5.8,-,N/A,,Clear,0,2013-06-24 15:56:00
11:56 AM,79.0,68.9,71,30.04,10.0,SSW,9.2,-,N/A,,Clear,210,2013-06-24 16:56:00
12:56 PM,83.8,72.0,67,30.00,10.0,SSW,11.5,-,N/A,,Clear,200,2013-06-24 17:56:00
1:56 PM,84.9,72.0,65,29.99,10.0,SSW,12.7,19.6,N/A,,Clear,210,2013-06-24 18:56:00
2:56 PM,86.9,73.9,65,29.98,10.0,SSW,17.3,-,N/A,,Partly Cloudy,200,2013-06-24 19:56:00
3:56 PM,88.0,72.0,59,29.96,10.0,SSW,16.1,-,N/A,,Scattered Clouds,200,2013-06-24 20:56:00
4:56 PM,88.0,70.9,57,29.98,10.0,SW,11.5,-,N/A,,Partly Cloudy,220,2013-06-24 21:56:00
5:16 PM,86.0,69.8,58,30.02,10.0,WSW,9.2,-,0.00,Thunderstorm,Partly Cloudy,250,2013-06-24 22:16:00
5:30 PM,82.4,71.6,70,30.04,2.5,West,21.9,40.3,0.01,Rain-Thunderstorm,Rain,280,2013-06-24 22:30:00
5:32 PM,78.8,69.8,74,30.05,1.2,WNW,33.4,52.9,0.05,Rain-Thunderstorm,Heavy Thunderstorms and Rain,300,2013-06-24 22:32:00
5:43 PM,73.4,66.2,78,30.01,1.2,NNE,11.5,16.1,0.28,Rain-Thunderstorm,Heavy Thunderstorms and Rain,20,2013-06-24 22:43:00
5:56 PM,74.8,68.0,79,30.03,3.0,WNW,18.4,24.2,0.43,Rain-Thunderstorm,Thunderstorms and Rain,300,2013-06-24 22:56:00
6:00 PM,73.4,68.0,83,30.08,3.0,WNW,19.6,24.2,0.06,Rain-Thunderstorm,Thunderstorms and Rain,290,2013-06-24 23:00:00
6:12 PM,69.8,66.2,88,30.09,0.5,West,15.0,-,0.59,Fog-Rain-Thunderstorm,Thunderstorms and Rain,260,2013-06-24 23:12:00
6:21 PM,69.8,66.2,88,30.02,3.0,NNW,6.9,-,0.72,Rain-Thunderstorm,Thunderstorms and Rain,340,2013-06-24 23:21:00
6:30 PM,69.8,66.2,88,30.03,3.0,NE,13.8,-,0.73,Rain-Thunderstorm,Thunderstorms and Rain,50,2013-06-24 23:30:00
6:56 PM,68.9,66.9,93,30.01,10.0,ESE,8.1,-,0.73,Thunderstorm,Partly Cloudy,120,2013-06-24 23:56:00
7:56 PM,70.0,68.0,93,29.90,10.0,SSE,10.4,-,N/A,,Clear,160,2013-06-25 00:56:00
8:56 PM,70.0,65.8,87,29.94,10.0,South,5.8,-,N/A,,Clear,190,2013-06-25 01:56:00
9:56 PM,68.9,65.8,90,29.94,10.0,SSE,9.2,-,0.00,,Scattered Clouds,150,2013-06-25 02:56:00
10:56 PM,70.9,68.0,91,29.95,10.0,SSE,8.1,-,N/A,,Clear,150,2013-06-25 03:56:00
11:56 PM,72.0,70.9,96,29.94,7.0,South,8.1,-,N/A,,Clear,170,2013-06-25 04:56:00